Preview of NWS' New Version of Forecast
This preview is not operational and should not be used for support decisions.

Regional Weather Roundup (RWR)

Issued by Albany, NY (ALY)

                            
000
ASUS41 KALY 241610
RWRALY

NEW YORK STATE HOURLY WEATHER ROUNDUP
NATIONAL WEATHER SERVICE ALBANY NY
1200 PM EDT WED APR 24 2019

NOTE: "FAIR" INDICATES FEW OR NO CLOUDS BELOW 12,000 FEET WITH NO
SIGNIFICANT WEATHER AND/OR NO OBSTRUCTIONS TO VISIBILITY.

NYZ032-033-038>043-046>054-057>066-NYZ062>081-082-084-241700-
EAST

  
CITY           SKY/WX    TMP DP  RH WIND       PRES   REMARKS
ALBANY         PTSUNNY   51  37  58 NW15G22   29.83R                  
GLENS FALLS    CLOUDY    49  36  61 W14G23    29.78R                  
POUGHKEEPSIE   FAIR      57  38  48 W13G26    29.79R                  
NEWBURGH       MOSUNNY   55  41  58 NW14G25   29.82R                  
MONTGOMERY     FAIR      55  37  50 NW17G25   29.82R                  
WHITE PLAINS   FAIR      60  39  45 NW21G28   29.77S                  
ISLIP          FAIR      66  40  38 NW17G26   29.75R                  
NEW YORK CITY  FAIR      62  38  40 NW14      29.77S                  
CENTRAL PARK   FAIR      65  38  36 W6        29.80S                  
$$

NYZ005>009-017-018-044>046-055-056-241700-
CENTRAL

  
CITY           SKY/WX    TMP DP  RH WIND       PRES   REMARKS
FULTON         CLOUDY    42  31  64 W17G30    29.91R                  
SYRACUSE       CLOUDY    45  34  65 W21G28    29.90R                  
ROME           CLOUDY    42  33  70 W20       29.89R                  
ELMIRA         PTSUNNY   55  36  48 NW8G20    29.87S                  
BINGHAMTON     CLOUDY    46  33  60 NW8G21    29.85R                  
MONTICELLO     CLOUDY    48  35  60 W17G23    29.84S                  
$$

NYZ026>034-041>043-087-241700-
NORTH

  
CITY           SKY/WX    TMP DP  RH WIND       PRES   REMARKS
WATERTOWN      CLOUDY    41  37  86 SW18G25   29.86R                  
FORT DRUM      NOT AVBL                                               
OGDENSBURG     CLOUDY    45  37  76 W12       29.78R                  
MASSENA        LGT RAIN  44  32  62 W15       29.78R                  
SARANAC LAKE   CLOUDY    37  35  92 W8G22     29.72R FOG     WCI  31  
PLATTSBURGH    CLOUDY    49  35  58 VRB3G18   29.72R                  
$$

NYZ001>004-010>016-019>021-085-241700-
WEST

  
CITY           SKY/WX    TMP DP  RH WIND       PRES   REMARKS
NIAGARA FALLS  PTSUNNY   46  35  65 NW14      29.96S                  
BUFFALO        PTSUNNY   42  34  73 SW17      29.97R                  
DUNKIRK        FAIR      45  33  63 W18G24    30.01R                  
JAMESTOWN      FAIR      46  34  62 W16       29.97S                  
WELLSVILLE     FAIR      50  36  58 NW16G25   29.91S                  
ROCHESTER      CLOUDY    45  33  63 W18G30    29.94R                  
PENN YAN       PTSUNNY   51  35  54 NW14G22   29.89R                  
$$

             KEY
       WCI = WIND CHILL INDEX
       VSB = VISIBILITY
       HX  = HEAT INDEX
$$